Location: Unspecified
(0.0000°N, 0.0000°E)
Time: 22:23:20
(UTC+00:00)

YUBELEINY 2 - Visible Passes

Search period start: 27 May 2024 00:00
Search period end: 06 June 2024 00:00
Orbit: 1483 x 1508 km, 82.5° (Epoch: 27 May)

Date Brightness Start Highest point End Pass type
(mag) Time Alt. Az. Time Alt. Az. Time Alt. Az.
27 May 8.9 19:13:59 10° S 19:22:35 60° E 19:31:12 10° NNE visible
27 May 11.0 21:14:16 10° WSW 21:19:03 16° W 21:23:51 10° NW visible
28 May 9.6 18:26:39 10° SSE 18:33:43 27° E 18:40:45 10° NE visible
28 May 10.0 20:22:17 10° SSW 20:30:09 38° W 20:38:04 10° NNW visible
29 May 8.9 19:32:29 10° S 19:41:16 81° W 19:50:04 10° N visible
30 May 9.1 18:44:01 10° SSE 18:52:23 49° E 19:00:46 10° NNE visible
30 May 10.9 20:42:52 10° SW 20:48:50 20° W 20:54:51 10° NW visible
31 May 9.8 19:51:41 10° SSW 19:59:56 46° W 20:08:14 10° NNW visible
01 Jun 8.9 19:02:16 10° S 19:11:04 85° E 19:19:53 10° N visible
02 Jun 9.3 18:14:09 10° SSE 18:22:11 40° E 18:30:13 10° NNE visible
02 Jun 10.7 20:11:48 10° SW 20:18:37 26° W 20:25:30 10° NW visible
03 Jun 9.5 19:21:13 10° SSW 19:29:44 57° W 19:38:19 10° N visible
04 Jun 8.9 18:32:07 10° S 18:40:52 71° E 18:49:37 10° N visible
04 Jun 11.4 20:34:05 10° WSW 20:37:19 12° W 20:40:35 10° WNW visible
05 Jun 11.6 05:13:44 10° NE 05:18:13 15° E 05:22:41 10° ESE visible
05 Jun 10.5 19:40:57 10° SW 19:48:25 32° W 19:55:56 10° NNW visible
